Regional Weather Roundup
Issued by NWS

Home | Current Version | Previous Version | Text Only | Print | Product List | Glossary Off
Versions: 1 2 3 4 5 6 7 8 9 10 11 12 13 14 15 16 17 18 19 20 21 22 23 24 25 26 27 28 29 30 31 32 33 34 35 36 37 38 39 40 41 42 43 44 45 46 47 48 49 50

797
ASUS43 KDMX 021308
RWRIA

WEATHER ROUNDUP FOR IOWA
NATIONAL WEATHER SERVICE DES MOINES IA
800 AM CDT MON MAY 02 2016

NOTE: "FAIR" INDICATES FEW OR NO CLOUDS BELOW 12,000 FEET WITH NO
SIGNIFICANT WEATHER AND/OR OBSTRUCTIONS TO VISIBILITY.

* - THESE STATIONS ARE NOT NWS STATIONS...THUS NOT UNDER NWS
QUALITY CONTROL.  THEY ALSO DO NOT REPORT WEATHER SUCH
AS PRECIPITATION OR FOG.

IAZ001>003-012>014-020>022-031>034-043>046-021400-
   NORTHWEST IOWA

CITY           SKY/WX    TMP DP  RH WIND       PRES   REMARKS
CARROLL *      MOSUNNY   45  43  93 CALM      30.13S
CHEROKEE *     SUNNY     37  37 100 CALM      30.14S
DENISON *      SUNNY     45 N/A N/A CALM      30.12R
LE MARS *      SUNNY     39  37  93 CALM      30.15S
ORANGE CITY *  SUNNY     43  37  81 CALM      30.13S
SHELDON *      SUNNY     39  37  93 CALM      30.12S
SIOUX CITY     SUNNY     44  39  82 NW5       30.15S
SPENCER        SUNNY     42  38  85 CALM      30.13S
STORM LAKE *   PTSUNNY   48  39  71 NW7       30.13S
$$

IAZ055>058-069>071-079>083-090>094-021400-
   SOUTHWEST IOWA

CITY           SKY/WX    TMP DP  RH WIND       PRES   REMARKS
ATLANTIC *     SUNNY     45  43  93 CALM      30.14R
AUDUBON *      SUNNY     43  39  87 CALM      30.14S
CLARINDA *       N/A    N/A N/A N/A MISG        N/A
COUNCIL BLFS * PTSUNNY   48  43  81 N5        30.14S
CRESTON *      PTSUNNY   46  45  93 NE8       30.13R
HARLAN  *      CLOUDY    45  43  93 CALM      30.17S
LAMONI         CLOUDY    47  45  93 NE7       30.10S
RED OAK *      CLOUDY   129 N/A N/A N6        30.13S
SHENANDOAH *   CLOUDY    48  48 100 N7        30.14S
$$

IAZ047>049-059>061-072>074-084-021400-
   CENTRAL IOWA

CITY           SKY/WX    TMP DP  RH WIND       PRES   REMARKS
AMES           PTSUNNY   44  43  96 CALM      30.13R
ANKENY *       SUNNY     45  45 100 NE5       30.13R
BOONE *        CLOUDY    46  45  93 CALM      30.12R
CHARITON *     SUNNY     46  45  93 N8        30.11S
DES MOINES     MOSUNNY   50  44  80 NE5       30.13R
GRINNELL*      SUNNY     46  43  87 N10       30.11S
KNOXVILLE *    SUNNY     46  43  87 N7        30.11R
MARSHALLTOWN   CLOUDY    42  41  96 CALM      30.11S FOG
NEWTON *       SUNNY     46  46 100 N6        30.12R
$$

IAZ004>006-015-016-023>025-035-036-021400-
   NORTH CENTRAL IOWA

CITY           SKY/WX    TMP DP  RH WIND       PRES   REMARKS
ALGONA *       SUNNY     45  39  81 N3        30.12S
CLARION *      CLOUDY    41  41 100 CALM      30.12S
ESTHERVILLE    SUNNY     45  40  82 NW5       30.12S
FORT DODGE *   PTSUNNY   43  39  87 CALM      30.12S
MASON CITY     CLOUDY    40  38  93 NE3       30.12S
FOREST CITY *  PTSUNNY   41  41 100 CALM      30.11S
WEBSTER CITY * CLOUDY    43  43 100 W5        30.10S
IOWA FALLS *   CLOUDY    45  43  93 CALM      30.13R
$$

IAZ007>011-017>019-026>030-037>042-050>054-066-021400-
   NORTHEAST IOWA

CITY           SKY/WX    TMP DP  RH WIND       PRES   REMARKS
CEDAR RAPIDS   PTSUNNY   47  45  93 N6        30.09S
CHARLES CITY * MOSUNNY   48  45  87 E6        30.12S
CLINTON *      CLOUDY    48  46  93 N7        30.09R
DECORAH *      SUNNY     45  45 100 CALM      30.11S
DUBUQUE        CLOUDY    46  42  86 N9        30.10R
MONTICELLO *   CLOUDY    46  43  87 N6        30.10S
OELWEIN *      SUNNY     45  45 100 E7        30.12S
WATERLOO       MOSUNNY   46  43  89 NE3       30.12R
$$

IAZ064-065-067-068-078-021400-
   EAST CENTRAL IOWA

CITY           SKY/WX    TMP DP  RH WIND       PRES   REMARKS
DAVENPORT      CLOUDY    48  45  89 N7        30.09R
IOWA CITY      CLOUDY    47  44  90 N6        30.11S
MT. PLEASANT * CLOUDY    50  50 100 N9        30.09R
MUSCATINE *    CLOUDY    48  46  93 N5        30.10R
QUAD CITIES    CLOUDY    50  45  83 N3        30.07S
$$

IAZ062-063-075>077-085>089-095>099-021400-
   SOUTHEAST IOWA

CITY           SKY/WX    TMP DP  RH WIND       PRES   REMARKS
BURLINGTON     CLOUDY    48  48 100 NE8       30.07R FOG
FAIRFIELD *    CLOUDY    46  43  87 N8        30.09S
FORT MADISON * CLOUDY    48  46  93 N6        30.08R
KEOKUK *       CLOUDY    50  48  93 N6        30.06S
OSKALOOSA *    CLOUDY    43  43 100 N8        30.11R
OTTUMWA        CLOUDY    44  42  93 N9        30.10R
WASHINGTON *   CLOUDY    46  46 100 N8        30.11S
$$

ABBREVIATIONS USED IN REMARKS
   TC - TEMPERATURES IN CELSIUS
  WCI - WIND CHILL INDEX
   HX - HEAT INDEX
  VSB - VISIBILITY
$$





USA.gov is the U.S. government's official web portal to all federal, state and local government web resources and services.